This is the latest recevied weather packets stored in our database for station/object NC4M. If no packets are shown the sender has not sent any weather packets the latest 10 day(s).
| Time | Temp. | Humidity | Pressure | Rain* | Wind** | Luminosity | Snow |
|---|---|---|---|---|---|---|---|
| 1787545816 | 20.56° C | 81% | 1018.8 hPa | 0 mm | - | 0 W/m² | - |
| 1787545513 | 20.56° C | 78% | 1018.9 hPa | 0 mm | - | 0 W/m² | - |
| 1787545208 | 20.56° C | 82% | 1018.9 hPa | 0 mm | - | 0 W/m² | - |
| 1787544905 | 20.56° C | 80% | 1018.7 hPa | 0 mm | - | 0 W/m² | - |
| 1787544602 | 20.56° C | 78% | 1018.9 hPa | 0 mm | - | 0 W/m² | - |
| 1787544297 | 20.56° C | 81% | 1018.8 hPa | 0 mm | - | 0 W/m² | - |
| 1787543992 | 20.56° C | 79% | 1018.9 hPa | 0 mm | - | 0 W/m² | - |
| 1787543688 | 20.56° C | 81% | 1019 hPa | 0 mm | - | 0 W/m² | - |
| 1787543383 | 20.56° C | 78% | 1018.7 hPa | 0 mm | - | 0 W/m² | - |
| 1787543080 | 20.56° C | 76% | 1018.8 hPa | 0 mm | - | 0 W/m² | - |
| 1787542778 | 20.56° C | 82% | 1018.8 hPa | 0 mm | - | 0 W/m² | - |
| 1787542475 | 20.56° C | 79% | 1018.9 hPa | 0 mm | - | 0 W/m² | - |
| 1787542170 | 20.56° C | 79% | 1018.7 hPa | 0 mm | - | 0 W/m² | - |
| 1787541867 | 20.56° C | 78% | 1018.7 hPa | 0 mm | - | 0 W/m² | - |
| 1787541563 | 20.56° C | 77% | 1018.8 hPa | 0 mm | - | 0 W/m² | - |
| 1787541259 | 20.56° C | 78% | 1018.8 hPa | 0 mm | - | 0 W/m² | - |
| 1787540954 | 20.56° C | 80% | 1018.8 hPa | 0 mm | - | 0 W/m² | - |
| 1787540651 | 20.56° C | 76% | 1018.8 hPa | 0 mm | - | 0 W/m² | - |
| 1787540348 | 21.11° C | 75% | 1019 hPa | 0 mm | - | 0 W/m² | - |
| 1787540045 | 21.11° C | 77% | 1018.8 hPa | 0 mm | - | 0 W/m² | - |
| 1787539740 | 21.11° C | 78% | 1018.6 hPa | 0 mm | - | 0 W/m² | - |
| 1787539440 | 21.11° C | 73% | 1018.7 hPa | 0 mm | - | 0 W/m² | - |
| 1787539135 | 21.11° C | 75% | 1018.6 hPa | 0 mm | - | 0 W/m² | - |
| 1787538832 | 20.56° C | 74% | 1018.6 hPa | 0 mm | - | 0 W/m² | - |
| 1787538528 | 21.11° C | 78% | 1018.6 hPa | 0 mm | - | 0 W/m² | - |
* Rain latest hour (hover to see other rain measurements)
** Current wind speed in m/s (hover to see current wind gust speed)